Location: Nairn
(57.5833°N, 3.8667°W)
Time: 19:24:27
(UTC+00:00)

Cosmos 158 Rocket - Pass Details

Date: 07 August 2020
Orbit: 698 x 794 km, 74.0° (Epoch: 24 September)

Event Time Altitude Azimuth Distance (km) Brightness Sun altitude
Rises 02:45:02 0° 328° (NNW) 3,263 7.6 -10.3°
Reaches altitude 10° 02:47:28 10° 324° (NW) 2,343 6.8 -10.1°
Maximum altitude 02:52:36 50° 250° (WSW) 1,002 4.3 -9.7°
Drops below altitude 10° 02:57:47 10° 176° (S) 2,359 6.1 -9.3°
Sets 03:00:14 0° 172° (S) 3,286 6.9 -9.1°
Enters shadow 03:00:25 -1° 171° (S) 3,359 6.9 -9.1°
